H1 CPF 2 NER 2023 6 28 9 179 01 glonass127 H2 1106403 9127 37869 2023 6 28 0 0 0 2023 7 1 23 45 0 900 1 1 0 0 0 1 H9 10 0 60123 0.00000 0 8444487.653 -8807475.827 22455614.933 10 0 60123 900.00000 0 11092590.856 -8292246.875 21473503.967 10 0 60123 1800.00000 0 13627354.937 -7992914.104 20076516.178 10 0 60123 2700.00000 0 15983073.557 -7894665.135 18291394.553 10 0 60123 3600.00000 0 18099337.354 -7971361.536 16152391.309 10 0 60123 4500.00000 0 19923352.967 -8186776.317 13700636.214 10 0 60123 5400.00000 0 21411964.932 -8496269.306 10983370.865 10 0 60123 6300.00000 0 22533296.103 -8848832.207 8053061.009 10 0 60123 7200.00000 0 23267937.171 -9189419.180 4966401.756 10 0 60123 8100.00000 0 23609633.745 -9461466.014 1783233.035 10 0 60123 9000.00000 0 23565439.999 -9609492.046 -1434614.905 10 0 60123 9900.00000 0 23155329.957 -9581674.353 -4624523.983 10 0 60123 10800.00000 0 22411280.465 -9332283.885 -7724315.110 10 0 60123 11700.00000 0 21375862.516 -8823878.033 -10673474.492 10 0 60123 12600.00000 0 20100399.038 -8029153.757 -13414353.923 10 0 60123 13500.00000 0 18642766.338 -6932379.327 -15893319.617 10 0 60123 14400.00000 0 17064932.241 -5530340.455 -18061824.960 10 0 60123 15300.00000 0 15430335.871 -3832757.408 -19877383.853 10 0 60123 16200.00000 0 13801221.202 -1862152.459 -21304423.527 10 0 60123 17100.00000 0 12236038.770 346829.034 -22314998.261 10 0 60123 18000.00000 0 10787027.070 2748616.829 -22889348.610 10 0 60123 18900.00000 0 9498077.302 5288383.570 -23016294.224 10 0 60123 19800.00000 0 8402972.640 7904111.972 -22693452.168 10 0 60123 20700.00000 0 7524076.735 10528973.932 -21927276.512 10 0 60123 21600.00000 0 6871526.383 13093920.692 -20732919.034 10 0 60123 22500.00000 0 6442961.192 15530374.253 -19133914.723 10 0 60123 23400.00000 0 6223799.720 17772906.113 -17161699.652 10 0 60123 24300.00000 0 6188047.760 19761790.353 -14854972.307 10 0 60123 25200.00000 0 6299601.679 21445323.961 -12258912.699 10 0 60123 26100.00000 0 6513988.502 22781817.638 -9424276.507 10 0 60123 27000.00000 0 6780466.133 23741175.026 -6406383.877 10 0 60123 27900.00000 0 7044392.175 24305996.176 -3264024.361 10 0 60123 28800.00000 0 7249759.060 24472161.683 -58300.936 10 0 60123 29700.00000 0 7341786.890 24248876.118 3148563.306 10 0 60123 30600.00000 0 7269463.847 23658172.182 6294431.919 10 0 60123 31500.00000 0 6987927.123 22733899.527 9318451.813 10 0 60123 32400.00000 0 6460584.810 21520243.289 12162217.227 10 0 60123 33300.00000 0 5660890.784 20069836.394 14770879.597 10 0 60123 34200.00000 0 4573699.547 18441545.763 17094183.506 10 0 60123 35100.00000 0 3196145.734 16698025.081 19087410.832 10 0 60123 36000.00000 0 1538012.644 14903135.533 20712217.279 10 0 60123 36900.00000 0 -378424.980 13119340.417 21937347.615 10 0 60123 37800.00000 0 -2519077.506 11405179.934 22739218.194 10 0 60123 38700.00000 0 -4839209.186 9812928.585 23102357.532 10 0 60123 39600.00000 0 -7285052.389 8386530.005 23019697.946 10 0 60123 40500.00000 0 -9795802.891 7159892.659 22492713.410 10 0 60123 41400.00000 0 -12305916.571 6155615.401 21531401.013 10 0 60123 42300.00000 0 -14747615.583 5384194.783 20154105.608 10 0 60123 43200.00000 0 -17053503.362 4843746.795 18387189.554 10 0 60123 44100.00000 0 -19159182.792 4520255.117 16264551.777 10 0 60123 45000.00000 0 -21005770.960 4388336.760 13827002.929 10 0 60123 45900.00000 0 -22542207.157 4412494.743 11121505.969 10 0 60123 46800.00000 0 -23727258.306 4548807.229 8200294.135 10 0 60123 47700.00000 0 -24531137.350 4746984.014 5119880.997 10 0 60123 48600.00000 0 -24936665.367 4952705.250 1939979.831 10 0 60123 49500.00000 0 -24939926.474 5110144.570 -1277647.998 10 0 60123 50400.00000 0 -24550385.392 5164569.988 -4470393.773 10 0 60123 51300.00000 0 -23790460.064 5064911.612 -7576027.700 10 0 60123 52200.00000 0 -22694564.853 4766185.575 -10533925.892 10 0 60123 53100.00000 0 -21307662.741 4231668.870 -13286272.563 10 0 60123 54000.00000 0 -19683386.376 3434729.753 -15779212.000 10 0 60123 54900.00000 0 -17881806.776 2360232.694 -17963925.567 10 0 60123 55800.00000 0 -15966944.227 1005454.928 -19797610.407 10 0 60123 56700.00000 0 -14004127.374 -619527.311 -21244338.549 10 0 60123 57600.00000 0 -12057313.334 -2492001.858 -22275777.769 10 0 60123 58500.00000 0 -10186483.487 -4577328.000 -22871758.624 10 0 60123 59400.00000 0 -8445226.263 -6830159.473 -23020675.591 10 0 60123 60300.00000 0 -6878609.943 -9196131.944 -22719714.008 10 0 60123 61200.00000 0 -5521435.747 -11613943.587 -21974898.429 10 0 60123 62100.00000 0 -4396944.607 -14017740.446 -20800961.985 10 0 60123 63000.00000 0 -3516031.153 -16339705.199 -19221040.310 10 0 60123 63900.00000 0 -2876996.233 -18512739.380 -17266197.379 10 0 60123 64800.00000 0 -2465845.867 -20473125.427 -14974794.173 10 0 60123 65700.00000 0 -2257120.917 -22163056.260 -12391714.389 10 0 60123 66600.00000 0 -2215219.074 -23532926.170 -9567464.254 10 0 60123 67500.00000 0 -2296149.852 -24543287.600 -6557166.002 10 0 60123 68400.00000 0 -2449645.214 -25166393.155 -3419466.395 10 0 60123 69300.00000 0 -2621533.911 -25387260.206 -215383.163 10 0 60123 70200.00000 0 -2756277.083 -25204216.089 2992887.031 10 0 60123 71100.00000 0 -2799556.801 -24628903.971 6143175.274 10 0 60123 72000.00000 0 -2700807.816 -23685752.105 9174538.144 10 0 60123 72900.00000 0 -2415586.152 -22410931.448 12028423.793 10 0 60123 73800.00000 0 -1907675.783 -20850847.461 14649784.946 10 0 60123 74700.00000 0 -1150846.236 -19060230.591 16988118.876 10 0 60123 75600.00000 0 -130188.943 -17099905.692 18998416.410 10 0 60123 76500.00000 0 1157022.247 -15034333.003 20642004.052 10 0 60123 77400.00000 0 2700981.366 -12929021.761 21887265.418 10 0 60123 78300.00000 0 4479525.705 -10847921.998 22710230.482 10 0 60123 79200.00000 0 6458829.435 -8850900.292 23095023.298 10 0 60123 80100.00000 0 8594587.976 -6991401.545 23034161.059 10 0 60123 81000.00000 0 10833645.989 -5314391.108 22528699.587 10 0 60123 81900.00000 0 13116004.258 -3854660.344 21588222.495 10 0 60123 82800.00000 0 15377125.258 -2635564.317 20230673.509 10 0 60123 83700.00000 0 17550445.016 -1668243.106 18482033.712 10 0 60123 84600.00000 0 19569989.967 -951359.048 16375847.837 10 0 60123 85500.00000 0 21372992.456 -471361.548 13952606.258 10 0 60124 0.00000 0 22902397.593 -203269.673 11258992.108 10 0 60124 900.00000 0 24109158.409 -111941.371 8347003.891 10 0 60124 1800.00000 0 24954221.132 -153778.122 5272971.826 10 0 60124 2700.00000 0 25410118.962 -278794.490 2096480.217 10 0 60124 3600.00000 0 25462103.318 -432966.847 -1120781.015 10 0 60124 4500.00000 0 25108763.234 -560762.326 -4316215.246 10 0 60124 5400.00000 0 24362103.819 -607740.686 -7427544.773 10 0 60124 6300.00000 0 23247077.593 -523117.571 -10394038.391 10 0 60124 7200.00000 0 21800585.968 -262178.443 -13157715.405 10 0 60124 8100.00000 0 20069991.075 211561.928 -15664500.655 10 0 60124 9000.00000 0 18111199.564 924549.172 -17865305.763 10 0 60124 9900.00000 0 15986398.874 1891808.277 -19717013.162 10 0 60124 10800.00000 0 13761541.808 3116053.468 -21183341.507 10 0 60124 11700.00000 0 11503686.431 4587329.497 -22235573.674 10 0 60124 12600.00000 0 9278304.733 6283201.650 -22853131.582 10 0 60124 13500.00000 0 7146674.807 8169487.904 -23023985.628 10 0 60124 14400.00000 0 5163467.545 10201503.011 -22744890.215 10 0 60124 15300.00000 0 3374630.227 12325761.960 -22021440.814 10 0 60124 16200.00000 0 1815656.140 14482070.389 -20867951.967 10 0 60124 17100.00000 0 510312.388 16605912.851 -19307159.595 10 0 60124 18000.00000 0 -530122.091 18631037.109 -17369754.785 10 0 60124 18900.00000 0 -1307078.517 20492124.512 -15093759.813 10 0 60124 19800.00000 0 -1834373.943 22127433.196 -12523760.432 10 0 60124 20700.00000 0 -2137357.706 23481302.444 -9710011.408 10 0 60124 21600.00000 0 -2251568.367 24506413.094 -6707434.693 10 0 60124 22500.00000 0 -2220961.419 25165709.804 -3574531.579 10 0 60124 23400.00000 0 -2095785.862 25433905.942 -372231.630 10 0 60124 24300.00000 0 -1930201.986 25298510.005 2837298.018 10 0 60124 25200.00000 0 -1779742.840 24760333.035 5991859.170 10 0 60124 26100.00000 0 -1698727.575 23833458.452 9030421.271 10 0 60124 27000.00000 0 -1737735.868 22544678.227 11894289.536 10 0 60124 27900.00000 0 -1941249.217 20932421.210 14528220.998 10 0 60124 28800.00000 0 -2345557.092 19045220.082 16881468.472 10 0 60124 29700.00000 0 -2977014.332 16939781.721 18908734.374 10 0 60124 30600.00000 0 -3850721.242 14678741.282 20571018.388 10 0 60124 31500.00000 0 -4969680.252 12328192.487 21836345.068 10 0 60124 32400.00000 0 -6324463.564 9955094.894 22680359.750 10 0 60124 33300.00000 0 -7893405.518 7624663.297 23086783.352 10 0 60124 34200.00000 0 -9643312.411 5397844.722 23047718.803 10 0 60124 35100.00000 0 -11530661.809 3328984.687 22563804.100 10 0 60124 36000.00000 0 -13503243.844 1463776.761 21644209.118 10 0 60124 36900.00000 0 -15502179.145 -162421.700 20306475.568 10 0 60124 37800.00000 0 -17464232.704 -1525839.236 18576201.739 10 0 60124 38700.00000 0 -19324330.548 -2615054.149 16486576.057 10 0 60124 39600.00000 0 -21018177.202 -3431240.572 14077765.947 10 0 60124 40500.00000 0 -22484866.888 -3987885.622 11396171.091 10 0 60124 41400.00000 0 -23669380.668 -4309988.061 8493552.759 10 0 60124 42300.00000 0 -24524865.218 -4432770.338 5426053.681 10 0 60124 43200.00000 0 -25014596.927 -4399956.435 2253125.405 10 0 60124 44100.00000 0 -25113547.044 -4261686.659 -963617.362 10 0 60124 45000.00000 0 -24809479.570 -4072156.529 -4161593.753 10 0 60124 45900.00000 0 -24103532.628 -3887079.459 -7278481.660 10 0 60124 46800.00000 0 -23010255.702 -3761081.429 -10253445.829 10 0 60124 47700.00000 0 -21557098.169 -3745139.580 -13028343.645 10 0 60124 48600.00000 0 -19783368.218 -3884175.666 -15548883.152 10 0 60124 49500.00000 0 -17738704.232 -4214909.202 -17765708.467 10 0 60124 50400.00000 0 -15481122.051 -4764064.485 -19635389.053 10 0 60124 51300.00000 0 -13074720.217 -5547010.514 -21121291.361 10 0 60124 52200.00000 0 -10587140.304 -6566894.277 -22194313.904 10 0 60124 53100.00000 0 -8086890.254 -7814306.361 -22833469.862 10 0 60124 54000.00000 0 -5640644.580 -9267494.679 -23026304.812 10 0 60124 54900.00000 0 -3310636.151 -10893118.157 -22769140.905 10 0 60124 55800.00000 0 -1152250.201 -12647508.681 -22067142.713 10 0 60124 56700.00000 0 788077.957 -14478387.507 -20934203.967 10 0 60124 57600.00000 0 2474573.472 -16326962.691 -19392658.351 10 0 60124 58500.00000 0 3883369.930 -18130317.719 -17472821.327 10 0 60124 59400.00000 0 5003244.280 -19823989.216 -15212373.600 10 0 60124 60300.00000 0 5835810.495 -21344623.818 -12655600.067 10 0 60124 61200.00000 0 6395167.171 -22632601.340 -9852501.137 10 0 60124 62100.00000 0 6707017.574 -23634513.352 -6857795.664 10 0 60124 63000.00000 0 6807303.103 -24305393.114 -3729836.779 10 0 60124 63900.00000 0 6740411.405 -24610603.896 -529463.353 10 0 60124 64800.00000 0 6557037.937 -24527307.909 2681189.349 10 0 60124 65700.00000 0 6311793.678 -24045456.160 5839895.989 10 0 60124 66600.00000 0 6060661.556 -23168260.075 8885540.808 10 0 60124 67500.00000 0 5858409.523 -21912127.569 11759287.799 10 0 60124 68400.00000 0 5756069.076 -20306068.437 14405699.794 10 0 60124 69300.00000 0 5798584.400 -18390595.705 16773786.414 10 0 60124 70200.00000 0 6022729.404 -16216169.813 18817962.681 10 0 60124 71100.00000 0 6455378.346 -13841250.644 20498902.221 10 0 60124 72000.00000 0 7112200.759 -11330037.728 21784271.005 10 0 60124 72900.00000 0 7996833.952 -8749990.881 22649329.937 10 0 60124 73800.00000 0 9100566.894 -6169231.819 23077396.726 10 0 60124 74700.00000 0 10402548.732 -3653931.610 23060159.706 10 0 60124 75600.00000 0 11870514.168 -1265789.174 22597838.471 10 0 60124 76500.00000 0 13461997.267 940297.777 21699188.368 10 0 60124 77400.00000 0 15125985.606 2918275.372 20381348.112 10 0 60124 78300.00000 0 16804948.817 4632607.128 18669532.051 10 0 60124 79200.00000 0 18437160.105 6059510.111 16596570.989 10 0 60124 80100.00000 0 19959216.813 7187702.659 14202307.940 10 0 60124 81000.00000 0 21308657.242 8018632.039 11532857.753 10 0 60124 81900.00000 0 22426565.932 8566171.452 8639742.186 10 0 60124 82800.00000 0 23260058.955 8855797.444 5578914.727 10 0 60124 83700.00000 0 23764544.596 8923280.557 2409692.031 10 0 60124 84600.00000 0 23905663.031 8812942.655 -806388.676 10 0 60124 85500.00000 0 23660821.079 8575553.215 -4006764.644 10 0 60125 0.00000 0 23020254.519 8265952.866 -7129071.451 10 0 60125 900.00000 0 21987569.487 7940504.745 -10112372.664 10 0 60125 1800.00000 0 20579737.732 7654483.060 -12898365.652 10 0 60125 2700.00000 0 18826541.802 7459510.743 -15432543.672 10 0 60125 3600.00000 0 16769491.851 7401157.657 -17665285.145 10 0 60125 4500.00000 0 14460257.774 7516803.793 -19552848.182 10 0 60125 5400.00000 0 11958681.879 7833860.974 -21058248.472 10 0 60125 6300.00000 0 9330455.651 8368431.169 -22152001.441 10 0 60125 7200.00000 0 6644558.910 9124460.551 -22812712.643 10 0 60125 8100.00000 0 3970570.027 10093426.846 -23027503.756 10 0 60125 9000.00000 0 1375961.308 11254574.223 -22792265.365 10 0 60125 9900.00000 0 -1076505.741 12575686.029 -22111731.534 10 0 60125 10800.00000 0 -3331175.290 14014362.263 -20999375.228 10 0 60125 11700.00000 0 -5341581.566 15519746.787 -19477127.538 10 0 60125 12600.00000 0 -7072135.887 17034629.861 -17574927.541 10 0 60125 13500.00000 0 -8499346.990 18497835.583 -15330113.199 10 0 60125 14400.00000 0 -9612525.707 19846791.853 -12786667.017 10 0 60125 15300.00000 0 -10413947.346 21020173.029 -9994333.167 10 0 60125 16200.00000 0 -10918468.531 21960502.889 -7007625.244 10 0 60125 17100.00000 0 -11152618.448 22616607.808 -3884745.829 10 0 60125 18000.00000 0 -11153206.620 22945817.116 -686440.525 10 0 60125 18900.00000 0 -10965509.427 22915818.956 2525189.984 10 0 60125 19800.00000 0 -10641114.802 22506095.159 5687896.012 10 0 60125 20700.00000 0 -10235518.130 21708876.830 8740479.447 10 0 60125 21600.00000 0 -9805571.947 20529582.721 11623965.903 10 0 60125 22500.00000 0 -9406897.144 18986724.161 14282726.829 10 0 60125 23400.00000 0 -9091364.021 17111282.292 16665531.380 10 0 60125 24300.00000 0 -8904747.772 14945584.835 18726509.792 10 0 60125 25200.00000 0 -8884655.012 12541729.594 20426012.053 10 0 60125 26100.00000 0 -9058806.323 9959619.887 21731347.758 10 0 60125 27000.00000 0 -9443744.914 7264692.148 22617395.290 10 0 60125 27900.00000 0 -10044024.010 4525427.805 23067070.710 10 0 60125 28800.00000 0 -10851906.243 1810749.834 23071648.892 10 0 60125 29700.00000 0 -11847587.753 -812591.343 22630931.679 10 0 60125 30600.00000 0 -12999938.722 -3282537.574 21753259.994 10 0 60125 31500.00000 0 -14267731.300 -5544046.865 20455369.068 10 0 60125 32400.00000 0 -15601306.237 -7551127.561 18762088.211 10 0 60125 33300.00000 0 -16944611.548 -9268500.136 16705888.908 10 0 60125 34200.00000 0 -18237530.966 -10672818.334 14326287.500 10 0 60125 35100.00000 0 -19418407.455 -11753398.797 11669111.243 10 0 60125 36000.00000 0 -20426658.148 -12512427.953 8785639.212 10 0 60125 36900.00000 0 -21205372.161 -12964636.049 5731632.176 10 0 60125 37800.00000 0 -21703782.356 -13136450.280 2566268.225 10 0 60125 38700.00000 0 -21879506.132 -13064660.796 -648996.678 10 0 60125 39600.00000 0 -21700458.932 -12794654.206 -3851621.686 10 0 60125 40500.00000 0 -21146357.099 -12378288.092 -6979204.342 10 0 60125 41400.00000 0 -20209743.366 -11871496.015 -9970709.509 10 0 60125 42300.00000 0 -18896488.219 -11331724.800 -12767678.499 10 0 60125 43200.00000 0 -17225742.594 -10815313.890 -15315392.896 10 0 60125 44100.00000 0 -15229340.896 -10374929.720 -17563968.164 10 0 60125 45000.00000 0 -12950677.216 -10057166.257 -19469353.320 10 0 60125 45900.00000 0 -10443100.552 -9900416.020 -20994214.969 10 0 60125 46800.00000 0 -7767895.845 -9933104.394 -22108686.480 10 0 60125 47700.00000 0 -4991935.828 -10172364.295 -22790966.089 10 0 60125 48600.00000 0 -2185102.959 -10623209.071 -23027751.186 10 0 60125 49500.00000 0 582409.328 -11278239.729 -22814499.726 10 0 60125 50400.00000 0 3242801.699 -12117899.201 -22155513.611 10 0 60125 51300.00000 0 5733265.947 -13111262.489 -21063842.882 10 0 60125 52200.00000 0 7998364.632 -14217328.210 -19561013.486 10 0 60125 53100.00000 0 9992093.644 -15386755.385 -17676585.249 10 0 60125 54000.00000 0 11679542.117 -16563970.149 -15447550.296 10 0 60125 54900.00000 0 13038081.832 -17689551.452 -12917585.472 10 0 60125 55800.00000 0 14058038.645 -18702793.105 -10136175.344 10 0 60125 56700.00000 0 14742820.988 -19544332.517 -7157624.833 10 0 60125 57600.00000 0 15108503.668 -20158734.247 -4039982.574 10 0 60125 58500.00000 0 15182888.327 -20496919.057 -843897.608 10 0 60125 59400.00000 0 15004083.859 -20518336.482 2368567.070 10 0 60125 60300.00000 0 14618669.886 -20192790.436 5535140.295 10 0 60125 61200.00000 0 14079523.307 -19501842.636 8594544.123 10 0 60125 62100.00000 0 13443401.248 -18439736.749 11487667.947 10 0 60125 63000.00000 0 12768382.946 -17013806.491 14158693.566 10 0 60125 63900.00000 0 12111278.040 -15244352.328 16556150.972 10 0 60125 64800.00000 0 11525109.128 -13163993.293 18633886.484 10 0 60125 65700.00000 0 11056772.568 -10816521.562 20351926.913 10 0 60125 66600.00000 0 10744973.518 -8255307.301 21677225.524 10 0 60125 67500.00000 0 10618519.507 -5541319.047 22584277.862 10 0 60125 68400.00000 0 10695042.004 -2740839.799 23055597.683 10 0 60125 69300.00000 0 10980198.027 77029.075 23082045.441 10 0 60125 70200.00000 0 11467384.515 2842975.868 22663004.007 10 0 60125 71100.00000 0 12137977.620 5490093.827 21806398.437 10 0 60125 72000.00000 0 12962088.078 7956398.594 20528558.859 10 0 60125 72900.00000 0 13899803.016 10187146.289 18853927.783 10 0 60125 73800.00000 0 14902864.794 12136858.235 16814615.498 10 0 60125 74700.00000 0 15916719.393 13770969.482 14449809.686 10 0 60125 75600.00000 0 16882851.295 15067032.951 11805047.948 10 0 60125 76500.00000 0 17741309.210 16015428.500 8931364.519 10 0 60125 77400.00000 0 18433318.166 16619546.038 5884325.230 10 0 60125 78300.00000 0 18903868.801 16895433.322 2722967.315 10 0 60125 79200.00000 0 19104174.399 16870921.266 -491336.835 10 0 60125 80100.00000 0 18993890.652 16584261.725 -3696070.559 10 0 60125 81000.00000 0 18543002.103 16082333.668 -6828795.295 10 0 60125 81900.00000 0 17733292.533 15418492.616 -9828379.823 10 0 60125 82800.00000 0 16559333.658 14650154.113 -12636210.979 10 0 60125 83700.00000 0 15028946.795 13836214.134 -15197360.317 10 0 60125 84600.00000 0 13163114.605 13034417.044 -17461681.756 10 0 60125 85500.00000 0 10995343.788 12298784.550 -19384816.417 10 0 60126 0.00000 0 8570503.653 11677216.887 -20929082.713 10 0 60126 900.00000 0 5943186.786 11209369.916 -22064233.074 10 0 60126 1800.00000 0 3175663.552 10924901.032 -22768058.952 10 0 60126 2700.00000 0 335512.280 10842158.763 -23026833.954 10 0 60126 3600.00000 0 -2506971.503 10967373.499 -22835583.692 10 0 60126 4500.00000 0 -5281478.300 11294383.646 -22198177.910 10 0 60126 5400.00000 0 -7920385.755 11804908.460 -21127243.390 10 0 60126 6300.00000 0 -10361343.679 12469354.925 -19643900.224 10 0 60126 7200.00000 0 -12549634.311 13248122.885 -17777327.895 10 0 60126 8100.00000 0 -14440209.262 14093351.136 -15564171.236 10 0 60126 9000.00000 0 -15999318.906 14951028.362 -13047799.684 10 0 60126 9900.00000 0 -17205667.797 15763377.428 -10277436.211 10 0 60126 10800.00000 0 -18051050.310 16471410.274 -7307174.917 10 0 60126 11700.00000 0 -18540443.116 17017543.929 -4194908.235 10 0 60126 12600.00000 0 -18691554.222 17348166.266 -1001186.325 10 0 60126 13500.00000 0 -18533851.309 17416042.993 2211967.874 10 0 60126 14400.00000 0 -18107113.728 17182464.890 5382264.097 10 0 60126 15300.00000 0 -17459572.120 16619045.919 8448346.993 10 0 60126 16200.00000 0 -16645716.168 15709098.163 11350972.157 10 0 60126 17100.00000 0 -15723864.004 14448527.591 14034134.157 10 0 60126 18000.00000 0 -14753595.762 12846214.845 16446126.203 10 0 60126 18900.00000 0 -13793158.398 10923866.547 18540512.989 10 0 60126 19800.00000 0 -12896949.181 8715344.155 20277000.301 10 0 60126 20700.00000 0 -12113181.245 6265498.473 21622187.038 10 0 60126 21600.00000 0 -11481826.545 3628557.506 22550187.613 10 0 60126 22500.00000 0 -11032919.899 866132.993 23043114.876 10 0 60126 23400.00000 0 -10785292.985 -1955074.119 23091415.906 10 0 60126 24300.00000 0 -10745789.777 -4765777.174 22694055.238 10 0 60126 25200.00000 0 -10908995.597 -7496715.959 21858542.256 10 0 60126 26100.00000 0 -11257491.414 -10081272.659 20600801.697 10 0 60126 27000.00000 0 -11762623.940 -12457986.313 18944888.482 10 0 60126 27900.00000 0 -12385761.231 -14572864.023 16922550.416 10 0 60126 28800.00000 0 -13079983.628 -16381394.635 14572644.760 10 0 60126 29700.00000 0 -13792141.717 -17850181.944 11940417.247 10 0 60126 30600.00000 0 -14465197.351 -18958129.227 9076654.679 10 0 60126 31500.00000 0 -15040751.198 -19697124.640 6036725.035 10 0 60126 32400.00000 0 -15461651.559 -20072197.135 2879521.539 10 0 60126 33300.00000 0 -15674574.605 -20101134.341 -333670.314 10 0 60126 34200.00000 0 -15632466.282 -19813576.333 -3540361.510 10 0 60126 35100.00000 0 -15296740.791 -19249621.545 -6678080.892 10 0 60126 36000.00000 0 -14639140.008 -18458002.226 -9685604.685 10 0 60126 36900.00000 0 -13643171.867 -17493905.756 -12504168.712 10 0 60126 37800.00000 0 -12305063.267 -16416533.966 -15078637.813 10 0 60126 38700.00000 0 -10634183.628 -15286504.519 -17358607.432 10 0 60126 39600.00000 0 -8652917.938 -14163205.797 -19299413.498 10 0 60126 40500.00000 0 -6395992.009 -13102219.153 -20863028.689 10 0 60126 41400.00000 0 -3909276.390 -12152919.742 -22018825.570 10 0 60126 42300.00000 0 -1248118.278 -11356359.519 -22744190.098 10 0 60126 43200.00000 0 1524728.815 -10743523.671 -23024972.388 10 0 60126 44100.00000 0 4341490.286 -10334035.394 -22855765.324 10 0 60126 45000.00000 0 7131969.648 -10135364.243 -22240005.481 10 0 60126 45900.00000 0 9826251.654 -10142571.234 -21189894.814 10 0 60126 46800.00000 0 12357395.091 -10338600.378 -19726145.502 10 0 60126 47700.00000 0 14664001.640 -10695102.573 -17877554.199 10 0 60126 48600.00000 0 16692553.024 -11173754.763 -15680415.593 10 0 60126 49500.00000 0 18399419.016 -11728015.999 -13177788.503 10 0 60126 50400.00000 0 19752453.359 -12305243.484 -10418630.821 10 0 60126 51300.00000 0 20732112.806 -12849076.653 -7456822.102 10 0 60126 52200.00000 0 21332055.040 -13301986.423 -4350094.707 10 0 60126 53100.00000 0 21559193.644 -13607880.307 -1158896.014 10 0 60126 54000.00000 0 21433211.409 -13714652.584 2054794.904 10 0 60126 54900.00000 0 20985555.924 -13576571.755 5228672.274 10 0 60126 55800.00000 0 20257962.899 -13156405.263 8301306.564 10 0 60126 56700.00000 0 19300571.874 -12427193.151 11213322.349 10 0 60126 57600.00000 0 18169715.253 -11373597.644 13908529.220 10 0 60126 58500.00000 0 16925474.296 -9992773.651 16334985.292 10 0 60126 59400.00000 0 15629104.389 -8294725.227 18445974.773 10 0 60126 60300.00000 0 14340436.363 -6302134.117 20200883.017 10 0 60126 61200.00000 0 13115360.760 -4049667.973 21565954.657 10 0 60126 62100.00000 0 12003497.862 -1582796.626 22514922.625 10 0 60126 63000.00000 0 11046148.226 1043835.685 23029498.116 10 0 60126 63900.00000 0 10274606.832 3768416.610 23099713.719 10 0 60126 64800.00000 0 9708909.194 6524270.168 22724114.206 10 0 60126 65700.00000 0 9357060.364 9242367.144 21909791.579 10 0 60126 66600.00000 0 9214778.544 11853940.823 20672263.249 10 0 60126 67500.00000 0 9265764.367 14293102.915 19035194.421 10 0 60126 68400.00000 0 9482485.824 16499354.039 17029968.131 10 0 60126 69300.00000 0 9827447.825 18419886.553 14695108.818 10 0 60126 70200.00000 0 10254895.458 20011585.214 12075567.842 10 0 60126 71100.00000 0 10712881.731 21242642.523 9221882.002 10 0 60126 72000.00000 0 11145614.924 22093720.586 6189218.791 10 0 60126 72900.00000 0 11495988.126 22558609.409 3036324.770 10 0 60126 73800.00000 0 11708184.921 22644351.932 -175604.107 10 0 60126 74700.00000 0 11730250.819 22370828.243 -3384109.024 10 0 60126 75600.00000 0 11516520.374 21769814.179 -6526688.651 10 0 60126 76500.00000 0 11029795.039 20883552.075 -9542028.855 10 0 60126 77400.00000 0 10243176.558 19762892.618 -12371216.393 10 0 60126 78300.00000 0 9141474.823 18465085.710 -14958911.045 10 0 60126 79200.00000 0 7722126.983 17051313.858 -17254451.130 10 0 60126 80100.00000 0 5995585.454 15584073.333 -19212868.459 10 0 60126 81000.00000 0 3985155.384 14124515.258 -20795790.673 10 0 60126 81900.00000 0 1726286.009 12729860.899 -21972211.345 10 0 60126 82800.00000 0 -734655.831 11451002.289 -22719111.146 10 0 60126 83700.00000 0 -3342079.198 10330391.271 -23021916.827 10 0 60126 84600.00000 0 -6033258.459 9400307.357 -22874788.402 10 0 60126 85500.00000 0 -8740730.231 8681578.174 -22280728.810 99